Time,TemperatureF,DewpointF,PressureIn,WindDirection,WindDirectionDegrees,WindSpeedMPH,WindSpeedGustMPH,Humidity,HourlyPrecipIn,Conditions,Clouds,dailyrainin,SoftwareType,DateUTC
2013-02-09 00:00:00,45.0,34.0,-100.00,North,-999,-999.0,-999.0,64,0.00,,,-99.99,,2013-02-09 08:00:00,
2013-02-09 00:21:00,45.0,34.0,-100.00,North,-999,-999.0,-999.0,64,0.00,,,-99.99,,2013-02-09 08:21:00,
2013-02-09 00:32:00,45.0,34.0,-100.00,North,-999,-999.0,-999.0,64,0.00,,,-99.99,,2013-02-09 08:32:00,
2013-02-09 00:42:00,45.0,34.0,-100.00,North,-999,-999.0,-999.0,64,0.00,,,-99.99,,2013-02-09 08:42:00,
2013-02-09 00:52:00,45.0,34.0,-100.00,North,-999,-999.0,-999.0,64,0.00,,,-99.99,,2013-02-09 08:52:00,
2013-02-09 01:00:00,43.0,34.0,-100.00,North,-999,-999.0,-999.0,69,0.00,,,-99.99,,2013-02-09 09:00:00,
2013-02-09 01:22:00,43.0,34.0,-100.00,North,-999,-999.0,-999.0,69,0.00,,,-99.99,,2013-02-09 09:22:00,
2013-02-09 01:32:00,43.0,34.0,-100.00,North,-999,-999.0,-999.0,69,0.00,,,-99.99,,2013-02-09 09:32:00,
2013-02-09 01:42:00,43.0,34.0,-100.00,North,-999,-999.0,-999.0,69,0.00,,,-99.99,,2013-02-09 09:42:00,
2013-02-09 01:52:00,43.0,34.0,-100.00,North,-999,-999.0,-999.0,69,0.00,,,-99.99,,2013-02-09 09:52:00,
2013-02-09 02:00:00,41.0,34.0,-100.00,North,-999,-999.0,-999.0,75,0.00,,,-99.99,,2013-02-09 10:00:00,
2013-02-09 02:21:00,41.0,34.0,-100.00,North,-999,-999.0,-999.0,75,0.00,,,-99.99,,2013-02-09 10:21:00,
2013-02-09 02:32:00,41.0,34.0,-100.00,North,-999,-999.0,-999.0,75,0.00,,,-99.99,,2013-02-09 10:32:00,
2013-02-09 02:42:00,41.0,34.0,-100.00,North,-999,-999.0,-999.0,75,0.00,,,-99.99,,2013-02-09 10:42:00,
2013-02-09 02:52:00,41.0,34.0,-100.00,North,-999,-999.0,-999.0,75,0.00,,,-99.99,,2013-02-09 10:52:00,
2013-02-09 03:00:00,42.0,34.0,-100.00,North,-999,-999.0,-999.0,71,0.00,,,-99.99,,2013-02-09 11:00:00,
2013-02-09 03:22:00,42.0,34.0,-100.00,North,-999,-999.0,-999.0,71,0.00,,,-99.99,,2013-02-09 11:22:00,
2013-02-09 03:32:00,42.0,34.0,-100.00,North,-999,-999.0,-999.0,71,0.00,,,-99.99,,2013-02-09 11:32:00,
2013-02-09 03:42:00,42.0,34.0,-100.00,North,-999,-999.0,-999.0,71,0.00,,,-99.99,,2013-02-09 11:42:00,
2013-02-09 03:52:00,42.0,34.0,-100.00,North,-999,-999.0,-999.0,71,0.00,,,-99.99,,2013-02-09 11:52:00,
2013-02-09 04:00:00,41.0,33.0,-100.00,North,-999,-999.0,-999.0,71,0.00,,,-99.99,,2013-02-09 12:00:00,
2013-02-09 04:22:00,41.0,33.0,-100.00,North,-999,-999.0,-999.0,71,0.00,,,-99.99,,2013-02-09 12:22:00,
2013-02-09 04:32:00,41.0,33.0,-100.00,North,-999,-999.0,-999.0,71,0.00,,,-99.99,,2013-02-09 12:32:00,
2013-02-09 04:42:00,41.0,33.0,-100.00,North,-999,-999.0,-999.0,71,0.00,,,-99.99,,2013-02-09 12:42:00,
2013-02-09 04:52:00,41.0,33.0,-100.00,North,-999,-999.0,-999.0,71,0.00,,,-99.99,,2013-02-09 12:52:00,
2013-02-09 05:00:00,37.0,33.0,-100.00,North,-999,-999.0,-999.0,82,0.00,,,-99.99,,2013-02-09 13:00:00,
2013-02-09 05:22:00,37.0,33.0,-100.00,North,-999,-999.0,-999.0,82,0.00,,,-99.99,,2013-02-09 13:22:00,
2013-02-09 05:32:00,37.0,33.0,-100.00,North,-999,-999.0,-999.0,82,0.00,,,-99.99,,2013-02-09 13:32:00,
2013-02-09 05:42:00,37.0,33.0,-100.00,North,-999,-999.0,-999.0,82,0.00,,,-99.99,,2013-02-09 13:42:00,
2013-02-09 05:52:00,37.0,33.0,-100.00,North,-999,-999.0,-999.0,82,0.00,,,-99.99,,2013-02-09 13:52:00,
2013-02-09 06:00:00,35.0,31.0,-100.00,North,-999,-999.0,-999.0,85,0.00,,,-99.99,,2013-02-09 14:00:00,
2013-02-09 06:22:00,35.0,31.0,-100.00,North,-999,-999.0,-999.0,85,0.00,,,-99.99,,2013-02-09 14:22:00,
2013-02-09 06:32:00,35.0,31.0,-100.00,North,-999,-999.0,-999.0,85,0.00,,,-99.99,,2013-02-09 14:32:00,
2013-02-09 06:42:00,35.0,31.0,-100.00,North,-999,-999.0,-999.0,85,0.00,,,-99.99,,2013-02-09 14:42:00,
2013-02-09 06:52:00,35.0,31.0,-100.00,North,-999,-999.0,-999.0,85,0.00,,,-99.99,,2013-02-09 14:52:00,
2013-02-09 07:00:00,33.0,30.0,-100.00,North,-999,-999.0,-999.0,89,0.00,,,-99.99,,2013-02-09 15:00:00,
2013-02-09 07:22:00,33.0,30.0,-100.00,North,-999,-999.0,-999.0,89,0.00,,,-99.99,,2013-02-09 15:22:00,
2013-02-09 07:32:00,33.0,30.0,-100.00,North,-999,-999.0,-999.0,89,0.00,,,-99.99,,2013-02-09 15:32:00,
2013-02-09 07:42:00,33.0,30.0,-100.00,North,-999,-999.0,-999.0,89,0.00,,,-99.99,,2013-02-09 15:42:00,
2013-02-09 07:52:00,33.0,30.0,-100.00,North,-999,-999.0,-999.0,89,0.00,,,-99.99,,2013-02-09 15:52:00,
2013-02-09 08:00:00,36.0,31.0,-100.00,North,-999,-999.0,-999.0,83,0.00,,,-99.99,,2013-02-09 16:00:00,
2013-02-09 08:22:00,36.0,31.0,-100.00,North,-999,-999.0,-999.0,83,0.00,,,-99.99,,2013-02-09 16:22:00,
2013-02-09 08:32:00,36.0,31.0,-100.00,North,-999,-999.0,-999.0,83,0.00,,,-99.99,,2013-02-09 16:32:00,
2013-02-09 08:42:00,36.0,31.0,-100.00,North,-999,-999.0,-999.0,83,0.00,,,-99.99,,2013-02-09 16:42:00,
2013-02-09 08:52:00,36.0,31.0,-100.00,North,-999,-999.0,-999.0,83,0.00,,,-99.99,,2013-02-09 16:52:00,
2013-02-09 09:00:00,42.0,34.0,-100.00,North,-999,-999.0,-999.0,71,0.00,,,-99.99,,2013-02-09 17:00:00,
2013-02-09 09:22:00,42.0,34.0,-100.00,North,-999,-999.0,-999.0,71,0.00,,,-99.99,,2013-02-09 17:22:00,
2013-02-09 09:32:00,42.0,34.0,-100.00,North,-999,-999.0,-999.0,71,0.00,,,-99.99,,2013-02-09 17:32:00,
2013-02-09 09:42:00,42.0,34.0,-100.00,North,-999,-999.0,-999.0,71,0.00,,,-99.99,,2013-02-09 17:42:00,
2013-02-09 09:52:00,42.0,34.0,-100.00,North,-999,-999.0,-999.0,71,0.00,,,-99.99,,2013-02-09 17:52:00,
2013-02-09 10:00:00,49.0,33.0,-100.00,North,-999,-999.0,-999.0,54,0.00,,,-99.99,,2013-02-09 18:00:00,
2013-02-09 10:23:00,49.0,33.0,-100.00,North,-999,-999.0,-999.0,54,0.00,,,-99.99,,2013-02-09 18:23:00,
2013-02-09 10:32:00,49.0,33.0,-100.00,North,-999,-999.0,-999.0,54,0.00,,,-99.99,,2013-02-09 18:32:00,
2013-02-09 10:42:00,49.0,33.0,-100.00,North,-999,-999.0,-999.0,54,0.00,,,-99.99,,2013-02-09 18:42:00,
2013-02-09 10:52:00,49.0,33.0,-100.00,North,-999,-999.0,-999.0,54,0.00,,,-99.99,,2013-02-09 18:52:00,
2013-02-09 11:00:00,51.0,32.0,-100.00,North,-999,-999.0,-999.0,47,0.00,,,-99.99,,2013-02-09 19:00:00,
2013-02-09 11:22:00,51.0,32.0,-100.00,North,-999,-999.0,-999.0,47,0.00,,,-99.99,,2013-02-09 19:22:00,
2013-02-09 11:32:00,51.0,32.0,-100.00,North,-999,-999.0,-999.0,47,0.00,,,-99.99,,2013-02-09 19:32:00,
2013-02-09 11:42:00,51.0,32.0,-100.00,North,-999,-999.0,-999.0,47,0.00,,,-99.99,,2013-02-09 19:42:00,
2013-02-09 11:52:00,51.0,32.0,-100.00,North,-999,-999.0,-999.0,47,0.00,,,-99.99,,2013-02-09 19:52:00,
2013-02-09 13:00:00,59.0,31.0,-100.00,North,-999,-999.0,-999.0,34,0.00,,,-99.99,,2013-02-09 21:00:00,
2013-02-09 13:22:00,59.0,31.0,-100.00,North,-999,-999.0,-999.0,34,0.00,,,-99.99,,2013-02-09 21:22:00,
2013-02-09 13:32:00,59.0,31.0,-100.00,North,-999,-999.0,-999.0,34,0.00,,,-99.99,,2013-02-09 21:32:00,
2013-02-09 13:42:00,59.0,31.0,-100.00,North,-999,-999.0,-999.0,34,0.00,,,-99.99,,2013-02-09 21:42:00,
2013-02-09 13:52:00,59.0,31.0,-100.00,North,-999,-999.0,-999.0,34,0.00,,,-99.99,,2013-02-09 21:52:00,
2013-02-09 14:00:00,62.0,32.0,-100.00,North,-999,-999.0,-999.0,31,0.00,,,-99.99,,2013-02-09 22:00:00,
2013-02-09 14:22:00,62.0,32.0,-100.00,North,-999,-999.0,-999.0,31,0.00,,,-99.99,,2013-02-09 22:22:00,
2013-02-09 14:32:00,62.0,32.0,-100.00,North,-999,-999.0,-999.0,31,0.00,,,-99.99,,2013-02-09 22:32:00,
2013-02-09 14:42:00,62.0,32.0,-100.00,North,-999,-999.0,-999.0,31,0.00,,,-99.99,,2013-02-09 22:42:00,
2013-02-09 14:52:00,62.0,32.0,-100.00,North,-999,-999.0,-999.0,31,0.00,,,-99.99,,2013-02-09 22:52:00,
2013-02-09 16:00:00,59.0,31.0,-100.00,North,-999,-999.0,-999.0,33,0.00,,,-99.99,,2013-02-10 00:00:00,
2013-02-09 16:22:00,59.0,31.0,-100.00,North,-999,-999.0,-999.0,33,0.00,,,-99.99,,2013-02-10 00:22:00,
2013-02-09 16:32:00,59.0,31.0,-100.00,North,-999,-999.0,-999.0,33,0.00,,,-99.99,,2013-02-10 00:32:00,
2013-02-09 16:42:00,59.0,31.0,-100.00,North,-999,-999.0,-999.0,33,0.00,,,-99.99,,2013-02-10 00:42:00,
2013-02-09 16:52:00,59.0,31.0,-100.00,North,-999,-999.0,-999.0,33,0.00,,,-99.99,,2013-02-10 00:52:00,
2013-02-09 17:00:00,58.0,32.0,-100.00,North,-999,-999.0,-999.0,38,0.00,,,-99.99,,2013-02-10 01:00:00,
2013-02-09 17:22:00,58.0,32.0,-100.00,North,-999,-999.0,-999.0,38,0.00,,,-99.99,,2013-02-10 01:22:00,
2013-02-09 17:32:00,58.0,32.0,-100.00,North,-999,-999.0,-999.0,38,0.00,,,-99.99,,2013-02-10 01:32:00,
2013-02-09 17:42:00,58.0,32.0,-100.00,North,-999,-999.0,-999.0,38,0.00,,,-99.99,,2013-02-10 01:42:00,
2013-02-09 17:52:00,58.0,32.0,-100.00,North,-999,-999.0,-999.0,38,0.00,,,-99.99,,2013-02-10 01:52:00,
2013-02-09 18:00:00,53.0,32.0,-100.00,North,-999,-999.0,-999.0,44,0.00,,,-99.99,,2013-02-10 02:00:00,
2013-02-09 18:22:00,53.0,32.0,-100.00,North,-999,-999.0,-999.0,44,0.00,,,-99.99,,2013-02-10 02:22:00,
2013-02-09 18:32:00,53.0,32.0,-100.00,North,-999,-999.0,-999.0,44,0.00,,,-99.99,,2013-02-10 02:32:00,
2013-02-09 18:42:00,53.0,32.0,-100.00,North,-999,-999.0,-999.0,44,0.00,,,-99.99,,2013-02-10 02:42:00,
2013-02-09 18:52:00,53.0,32.0,-100.00,North,-999,-999.0,-999.0,44,0.00,,,-99.99,,2013-02-10 02:52:00,
2013-02-09 19:00:00,48.0,33.0,-100.00,North,-999,-999.0,-999.0,56,0.00,,,-99.99,,2013-02-10 03:00:00,
2013-02-09 19:22:00,48.0,33.0,-100.00,North,-999,-999.0,-999.0,56,0.00,,,-99.99,,2013-02-10 03:22:00,
2013-02-09 19:32:00,48.0,33.0,-100.00,North,-999,-999.0,-999.0,56,0.00,,,-99.99,,2013-02-10 03:32:00,
2013-02-09 19:42:00,48.0,33.0,-100.00,North,-999,-999.0,-999.0,56,0.00,,,-99.99,,2013-02-10 03:42:00,
2013-02-09 19:52:00,48.0,33.0,-100.00,North,-999,-999.0,-999.0,56,0.00,,,-99.99,,2013-02-10 03:52:00,
2013-02-09 20:00:00,45.0,33.0,-100.00,North,-999,-999.0,-999.0,60,0.00,,,-99.99,,2013-02-10 04:00:00,
2013-02-09 20:22:00,45.0,33.0,-100.00,North,-999,-999.0,-999.0,60,0.00,,,-99.99,,2013-02-10 04:22:00,
2013-02-09 20:32:00,45.0,33.0,-100.00,North,-999,-999.0,-999.0,60,0.00,,,-99.99,,2013-02-10 04:32:00,
2013-02-09 20:42:00,45.0,33.0,-100.00,North,-999,-999.0,-999.0,60,0.00,,,-99.99,,2013-02-10 04:42:00,
2013-02-09 20:52:00,45.0,33.0,-100.00,North,-999,-999.0,-999.0,60,0.00,,,-99.99,,2013-02-10 04:52:00,
2013-02-09 21:00:00,40.0,32.0,-100.00,North,-999,-999.0,-999.0,71,0.00,,,-99.99,,2013-02-10 05:00:00,
2013-02-09 21:23:00,40.0,32.0,-100.00,North,-999,-999.0,-999.0,71,0.00,,,-99.99,,2013-02-10 05:23:00,
2013-02-09 21:32:00,40.0,32.0,-100.00,North,-999,-999.0,-999.0,71,0.00,,,-99.99,,2013-02-10 05:32:00,
2013-02-09 21:42:00,40.0,32.0,-100.00,North,-999,-999.0,-999.0,71,0.00,,,-99.99,,2013-02-10 05:42:00,
2013-02-09 21:52:00,40.0,32.0,-100.00,North,-999,-999.0,-999.0,71,0.00,,,-99.99,,2013-02-10 05:52:00,
2013-02-09 22:00:00,39.0,32.0,-100.00,North,-999,-999.0,-999.0,74,0.00,,,-99.99,,2013-02-10 06:00:00,
2013-02-09 22:21:00,39.0,32.0,-100.00,North,-999,-999.0,-999.0,74,0.00,,,-99.99,,2013-02-10 06:21:00,
2013-02-09 22:32:00,39.0,32.0,-100.00,North,-999,-999.0,-999.0,74,0.00,,,-99.99,,2013-02-10 06:32:00,
2013-02-09 22:42:00,39.0,32.0,-100.00,North,-999,-999.0,-999.0,74,0.00,,,-99.99,,2013-02-10 06:42:00,
2013-02-09 22:52:00,39.0,32.0,-100.00,North,-999,-999.0,-999.0,74,0.00,,,-99.99,,2013-02-10 06:52:00,
2013-02-09 23:00:00,37.0,33.0,-100.00,North,-999,-999.0,-999.0,84,0.00,,,-99.99,,2013-02-10 07:00:00,
2013-02-09 23:21:00,37.0,33.0,-100.00,North,-999,-999.0,-999.0,84,0.00,,,-99.99,,2013-02-10 07:21:00,
2013-02-09 23:32:00,37.0,33.0,-100.00,North,-999,-999.0,-999.0,84,0.00,,,-99.99,,2013-02-10 07:32:00,
2013-02-09 23:42:00,37.0,33.0,-100.00,North,-999,-999.0,-999.0,84,0.00,,,-99.99,,2013-02-10 07:42:00,
2013-02-09 23:52:00,37.0,33.0,-100.00,North,-999,-999.0,-999.0,84,0.00,,,-99.99,,2013-02-10 07:52:00,